Queen Of Cowichan — CZ4990 — position and weather

sailwx.info

Track history (hours):
 
Tides and Currents Weather Stations Pressure Air Temp Water Temp Dewpoint Dewpoint Depression Visibility Wind Speed Wind Dir Waves Ship Positions

Queen Of Cowichan

Last reported at 2014-Nov-24 19:34 UTC. Time now 2014-Nov-24 20:16 UTC.
Position N 49°17' W 123°31'.

Length 139 m; draft 5.5 m.

Type: Passenger vessel. MMSI: 316001251.

Date/timePositionNaut miles runAvg speedWind from/ knotsBaromVisibWave heightAir tempDewpointWater temp
2014-Nov-24 19:34N 49°17' W 123°31'1814.3
2014-Nov-24 18:18N 49°12' W 123°57'1215.6
2014-Nov-24 17:33N 49°16' W 123°41'1716.7
2014-Nov-24 16:31N 49°23' W 123°16'1010.5
2014-Nov-24 15:34N 49°17' W 123°30'1918.4
2014-Nov-24 14:32N 49°12' W 123°57'0 0.1
2014-Nov-24 13:32N 49°12' W 123°57'0 0.0
2014-Nov-24 12:20N 49°12' W 123°57'0 0.0
2014-Nov-24 11:32N 49°12' W 123°57'0 0.0
2014-Nov-24 10:20N 49°12' W 123°57'0 0.0
2014-Nov-24 09:11N 49°12' W 123°57'0 0.0
2014-Nov-24 08:23N 49°12' W 123°57'4 2.4
2014-Nov-24 06:34N 49°14' W 123°52'2020.0
2014-Nov-24 05:34N 49°20' W 123°22'1 1.2
2014-Nov-24 04:34N 49°20' W 123°21'1918.8
2014-Nov-24 03:34N 49°14' W 123°48'4 4.3
2014-Nov-24 02:33N 49°13' W 123°54'2019.9
2014-Nov-24 01:34N 49°19' W 123°25'7 7.2
2014-Nov-24 00:33N 49°23' W 123°16'1918.6
2014-Nov-23 23:34N 49°15' W 123°42'1110.5
2014-Nov-23 22:33N 49°12' W 123°57'1413.9
2014-Nov-23 21:33N 49°17' W 123°38'1511.3
2014-Nov-23 20:13N 49°23' W 123°16'1015.1
2014-Nov-23 19:33N 49°17' W 123°29'1918.7
2014-Nov-23 18:32N 49°12' W 123°57'1010.2
2014-Nov-23 17:33N 49°16' W 123°44'1919.1
2014-Nov-23 16:33N 49°23' W 123°17'9 9.4
2014-Nov-23 15:33N 49°18' W 123°29'2019.6
2014-Nov-23 14:33N 49°12' W 123°57'0 0.2
2014-Nov-23 12:29N 49°12' W 123°57'0 0.0
2014-Nov-23 11:32N 49°12' W 123°57'0 0.0
2014-Nov-23 07:29N 49°12' W 123°57'2 2.2
2014-Nov-23 06:33N 49°13' W 123°55'2020.3
2014-Nov-23 05:34N 49°19' W 123°25'4 4.2
2014-Nov-23 04:34N 49°21' W 123°20'1919.0
2014-Nov-23 03:33N 49°14' W 123°47'5 4.7
2014-Nov-23 02:33N 49°13' W 123°54'2020.4
2014-Nov-23 01:34N 49°19' W 123°24'6 6.3
2014-Nov-23 00:33N 49°23' W 123°17'1919.0
2014-Nov-22 23:34N 49°15' W 123°43'10 9.8
2014-Nov-22 22:33N 49°12' W 123°57'1312.8
2014-Nov-22 21:34N 49°17' W 123°40'1612.0
2014-Nov-22 20:11N 49°23' W 123°16'1016.0
2014-Nov-22 19:34N 49°17' W 123°30'1918.9
2014-Nov-22 18:33N 49°12' W 123°57'10 9.8
2014-Nov-22 17:33N 49°16' W 123°44'1919.3
2014-Nov-22 16:34N 49°23' W 123°17'9 9.1
2014-Nov-22 15:33N 49°18' W 123°28'2019.8
2014-Nov-22 14:34N 49°12' W 123°57'1 0.5
2014-Nov-22 13:25N 49°12' W 123°57'0 0.0
2014-Nov-22 12:19N 49°12' W 123°57'0 0.0
2014-Nov-22 11:31N 49°12' W 123°57'0 0.0
2014-Nov-22 08:13N 49°12' W 123°57'3 1.5
2014-Nov-22 06:33N 49°13' W 123°54'2020.0
2014-Nov-22 05:34N 49°19' W 123°25'3 3.3
2014-Nov-22 04:33N 49°20' W 123°20'2019.6
2014-Nov-22 03:34N 49°14' W 123°49'3 2.9
2014-Nov-22 02:33N 49°14' W 123°53'2020.0
2014-Nov-22 01:34N 49°19' W 123°24'6 5.6
2014-Nov-22 00:34N 49°23' W 123°17'1919.1
2014-Nov-21 23:34N 49°15' W 123°44'9 8.3
2014-Nov-21 22:27N 49°12' W 123°57'1719.3
2014-Nov-21 21:33N 49°18' W 123°33'12 9.5
2014-Nov-21 20:19N 49°23' W 123°16'1114.4
2014-Nov-21 19:33N 49°17' W 123°31'1817.4
2014-Nov-21 18:32N 49°12' W 123°57'1010.3
2014-Nov-21 17:33N 49°16' W 123°43'1919.0
2014-Nov-21 16:34N 49°23' W 123°17'9 8.6
2014-Nov-21 15:33N 49°18' W 123°27'2019.8
2014-Nov-21 14:34N 49°12' W 123°56'1 0.1
2014-Nov-21 05:25N 49°12' W 123°57'0 0.0
2014-Nov-21 03:13N 49°12' W 123°57'2 3.1
2014-Nov-21 02:34N 49°13' W 123°55'1919.5
2014-Nov-21 01:34N 49°19' W 123°27'8 7.6
2014-Nov-21 00:33N 49°23' W 123°17'1918.9
2014-Nov-20 23:34N 49°16' W 123°43'1010.1
2014-Nov-20 22:33N 49°12' W 123°57'1313.5
2014-Nov-20 21:34N 49°17' W 123°38'1611.3
2014-Nov-20 20:11N 49°23' W 123°16'1117.2
2014-Nov-20 19:34N 49°17' W 123°31'1812.5
2014-Nov-20 18:05N 49°12' W 123°57'1018.4
2014-Nov-20 17:33N 49°16' W 123°44'1919.2
2014-Nov-20 16:33N 49°23' W 123°17'9 8.7
2014-Nov-20 15:33N 49°18' W 123°28'2019.8
2014-Nov-20 14:34N 49°12' W 123°57'1 0.1
2014-Nov-20 08:22N 49°12' W 123°57'0 0.0
2014-Nov-20 07:16N 49°12' W 123°57'0 0.0
2014-Nov-20 05:28N 49°12' W 123°57'0 0.0
2014-Nov-20 04:16N 49°12' W 123°57'2 1.0
2014-Nov-20 02:33N 49°13' W 123°55'1919.6
2014-Nov-20 01:33N 49°18' W 123°27'8 8.4
2014-Nov-20 00:34N 49°23' W 123°16'1818.4
2014-Nov-19 23:33N 49°15' W 123°42'1110.5
2014-Nov-19 22:33N 49°12' W 123°57'1010.3
2014-Nov-19 21:33N 49°16' W 123°43'1918.8
2014-Nov-19 20:33N 49°23' W 123°16'9 9.4
2014-Nov-19 19:33N 49°18' W 123°28'2019.7
2014-Nov-19 18:34N 49°12' W 123°57'9 9.5
2014-Nov-19 17:33N 49°16' W 123°44'1919.1
2014-Nov-19 16:33N 49°23' W 123°17'9 8.9
2014-Nov-19 15:33N 49°18' W 123°27'2019.8
2014-Nov-19 14:34N 49°12' W 123°57'1 0.3
2014-Nov-19 11:16N 49°12' W 123°57'0 0.0
2014-Nov-19 08:28N 49°12' W 123°57'0 0.0
2014-Nov-19 07:28N 49°12' W 123°57'0 0.0
2014-Nov-19 06:28N 49°12' W 123°57'0 0.0
2014-Nov-19 05:22N 49°12' W 123°57'4 1.3
2014-Nov-19 02:33N 49°14' W 123°53'1919.5
2014-Nov-19 01:33N 49°19' W 123°24'6 6.0
2014-Nov-19 00:34N 49°23' W 123°17'1919.0
2014-Nov-18 23:33N 49°15' W 123°43'10 9.8
2014-Nov-18 22:33N 49°12' W 123°57'1313.0
2014-Nov-18 21:33N 49°17' W 123°39'1615.9
2014-Nov-18 20:33N 49°23' W 123°16'1111.2
2014-Nov-18 19:34N 49°17' W 123°31'1816.2
2014-Nov-18 18:27N 49°12' W 123°57'1112.1
2014-Nov-18 17:33N 49°16' W 123°42'1818.2
2014-Nov-18 16:34N 49°23' W 123°16'9 9.3
2014-Nov-18 15:34N 49°18' W 123°28'2019.7
2014-Nov-18 14:33N 49°12' W 123°57'1 0.5
2014-Nov-18 13:20N 49°12' W 123°57'0 0.0
2014-Nov-18 12:32N 49°12' W 123°57'0 0.0
2014-Nov-18 09:32N 49°12' W 123°57'0 0.0
2014-Nov-18 08:32N 49°12' W 123°57'0 0.0
2014-Nov-18 07:32N 49°12' W 123°57'0 0.0
2014-Nov-18 06:32N 49°12' W 123°57'0 0.0
2014-Nov-18 05:32N 49°12' W 123°57'1 0.5
2014-Nov-18 04:33N 49°12' W 123°58'1 0.5
2014-Nov-18 03:33N 49°12' W 123°57'4 3.8
2014-Nov-18 02:33N 49°14' W 123°52'1919.4
2014-Nov-18 01:33N 49°19' W 123°24'6 5.9
2014-Nov-18 00:33N 49°23' W 123°17'1918.6
2014-Nov-17 23:33N 49°15' W 123°43'10 8.3
2014-Nov-17 22:20N 49°12' W 123°57'1013.3
2014-Nov-17 21:33N 49°15' W 123°43'1918.7
2014-Nov-17 20:34N 49°23' W 123°16'9 9.2
2014-Nov-17 19:33N 49°18' W 123°28'2019.7
2014-Nov-17 18:33N 49°12' W 123°57'10 9.9
2014-Nov-17 17:33N 49°16' W 123°43'1918.8
2014-Nov-17 16:33N 49°23' W 123°16'10 9.8
2014-Nov-17 15:33N 49°17' W 123°29'2019.5
2014-Nov-17 14:33N 49°12' W 123°57'0 0.0
2014-Nov-17 10:23N 49°12' W 123°57'0 0.0
2014-Nov-17 08:29N 49°12' W 123°57'0 0.0
2014-Nov-17 07:17N 49°12' W 123°57'2 2.2
2014-Nov-17 06:33N 49°13' W 123°55'2020.1
2014-Nov-17 05:34N 49°19' W 123°26'6 6.3
2014-Nov-17 04:33N 49°23' W 123°18'2019.6
2014-Nov-17 03:33N 49°14' W 123°46'8 7.6
2014-Nov-17 02:34N 49°12' W 123°57'2020.3
2014-Nov-17 01:34N 49°19' W 123°27'8 8.3
2014-Nov-17 00:34N 49°23' W 123°16'1918.5
2014-Nov-16 23:33N 49°15' W 123°42'1110.3
2014-Nov-16 22:33N 49°12' W 123°57'1414.0
2014-Nov-16 21:33N 49°17' W 123°38'1511.6
2014-Nov-16 20:15N 49°23' W 123°16'1116.0
2014-Nov-16 19:33N 49°17' W 123°31'1818.0
2014-Nov-16 18:33N 49°12' W 123°57'1211.7
2014-Nov-16 17:33N 49°16' W 123°41'1717.3
2014-Nov-16 16:34N 49°23' W 123°16'9 9.2
2014-Nov-16 15:34N 49°18' W 123°28'2019.6
2014-Nov-16 14:34N 49°12' W 123°57'1 0.6
2014-Nov-16 13:26N 49°12' W 123°57'0 0.0
2014-Nov-16 12:20N 49°12' W 123°57'0 0.0
2014-Nov-16 11:32N 49°12' W 123°57'0 0.0
2014-Nov-16 10:32N 49°12' W 123°57'0 0.0
2014-Nov-16 09:32N 49°12' W 123°57'0 0.0
2014-Nov-16 08:14N 49°12' W 123°57'0 0.0
2014-Nov-16 07:14N 49°12' W 123°57'0 0.1
2014-Nov-16 06:33N 49°12' W 123°57'1919.1
2014-Nov-16 05:34N 49°19' W 123°30'10 9.8
2014-Nov-16 04:34N 49°23' W 123°17'1918.7
2014-Nov-16 03:33N 49°15' W 123°43'10 9.8
2014-Nov-16 02:34N 49°12' W 123°57'2019.9
2014-Nov-16 01:34N 49°19' W 123°28'9 8.9
2014-Nov-16 00:34N 49°23' W 123°17'1918.9
2014-Nov-15 23:33N 49°15' W 123°43'1010.0
2014-Nov-15 22:33N 49°12' W 123°57'1413.7
2014-Nov-15 21:33N 49°17' W 123°38'1514.7
2014-Nov-15 20:31N 49°23' W 123°16'1111.7
2014-Nov-15 19:34N 49°17' W 123°31'1817.9
2014-Nov-15 18:34N 49°12' W 123°57'1110.8
2014-Nov-15 17:33N 49°16' W 123°42'1818.3
2014-Nov-15 16:33N 49°23' W 123°16'9 9.4
2014-Nov-15 15:33N 49°18' W 123°29'2019.6
2014-Nov-15 14:33N 49°12' W 123°57'0 0.4
2014-Nov-15 13:33N 49°12' W 123°57'0 0.0
2014-Nov-15 12:23N 49°12' W 123°57'0 0.0
2014-Nov-15 11:29N 49°12' W 123°57'0 0.0
2014-Nov-15 10:29N 49°12' W 123°57'0 0.0
2014-Nov-15 09:29N 49°12' W 123°57'0 0.0
2014-Nov-15 08:29N 49°12' W 123°57'0 0.0
2014-Nov-15 07:17N 49°12' W 123°57'1 0.8
2014-Nov-15 06:34N 49°12' W 123°57'2019.7
2014-Nov-15 05:34N 49°18' W 123°28'7 7.4
2014-Nov-15 04:33N 49°22' W 123°19'1919.3
2014-Nov-15 03:33N 49°14' W 123°46'7 6.7
2014-Nov-15 02:34N 49°13' W 123°55'2019.6
2014-Nov-15 01:33N 49°19' W 123°27'8 8.0
2014-Nov-15 00:34N 49°23' W 123°17'1918.9
2014-Nov-14 23:34N 49°15' W 123°43'1010.0
2014-Nov-14 22:33N 49°12' W 123°57'1413.7
2014-Nov-14 21:34N 49°17' W 123°38'1512.6
2014-Nov-14 20:21N 49°23' W 123°16'1113.9
2014-Nov-14 19:34N 49°17' W 123°31'  
Track history (hours):
 
Tides and Currents Weather Stations Pressure Air Temp Water Temp Dewpoint Dewpoint Depression Visibility Wind Speed Wind Dir Waves Ship Positions

Queen Of Cowichan

Last reported at 2014-Nov-24 19:34 UTC. Time now 2014-Nov-24 20:16 UTC.
Position N 49°17' W 123°31'.

Length 139 m; draft 5.5 m.

Type: Passenger vessel. MMSI: 316001251.

Date/timePositionNaut miles runAvg speedWind from/ knotsBaromVisibWave heightAir tempDewpointWater temp
2014-Nov-24 19:34N 49°17' W 123°31'1814.3
2014-Nov-24 18:18N 49°12' W 123°57'1215.6
2014-Nov-24 17:33N 49°16' W 123°41'1716.7
2014-Nov-24 16:31N 49°23' W 123°16'1010.5
2014-Nov-24 15:34N 49°17' W 123°30'1918.4
2014-Nov-24 14:32N 49°12' W 123°57'0 0.1
2014-Nov-24 13:32N 49°12' W 123°57'0 0.0
2014-Nov-24 12:20N 49°12' W 123°57'0 0.0
2014-Nov-24 11:32N 49°12' W 123°57'0 0.0
2014-Nov-24 10:20N 49°12' W 123°57'0 0.0
2014-Nov-24 09:11N 49°12' W 123°57'0 0.0
2014-Nov-24 08:23N 49°12' W 123°57'4 2.4
2014-Nov-24 06:34N 49°14' W 123°52'2020.0
2014-Nov-24 05:34N 49°20' W 123°22'1 1.2
2014-Nov-24 04:34N 49°20' W 123°21'1918.8
2014-Nov-24 03:34N 49°14' W 123°48'4 4.3
2014-Nov-24 02:33N 49°13' W 123°54'2019.9
2014-Nov-24 01:34N 49°19' W 123°25'7 7.2
2014-Nov-24 00:33N 49°23' W 123°16'1918.6
2014-Nov-23 23:34N 49°15' W 123°42'1110.5
2014-Nov-23 22:33N 49°12' W 123°57'1413.9
2014-Nov-23 21:33N 49°17' W 123°38'1511.3
2014-Nov-23 20:13N 49°23' W 123°16'1015.1
2014-Nov-23 19:33N 49°17' W 123°29'1918.7
2014-Nov-23 18:32N 49°12' W 123°57'1010.2
2014-Nov-23 17:33N 49°16' W 123°44'1919.1
2014-Nov-23 16:33N 49°23' W 123°17'9 9.4
2014-Nov-23 15:33N 49°18' W 123°29'2019.6
2014-Nov-23 14:33N 49°12' W 123°57'0 0.2
2014-Nov-23 12:29N 49°12' W 123°57'0 0.0
2014-Nov-23 11:32N 49°12' W 123°57'0 0.0
2014-Nov-23 07:29N 49°12' W 123°57'2 2.2
2014-Nov-23 06:33N 49°13' W 123°55'2020.3
2014-Nov-23 05:34N 49°19' W 123°25'4 4.2
2014-Nov-23 04:34N 49°21' W 123°20'1919.0
2014-Nov-23 03:33N 49°14' W 123°47'5 4.7
2014-Nov-23 02:33N 49°13' W 123°54'2020.4
2014-Nov-23 01:34N 49°19' W 123°24'6 6.3
2014-Nov-23 00:33N 49°23' W 123°17'1919.0
2014-Nov-22 23:34N 49°15' W 123°43'10 9.8
2014-Nov-22 22:33N 49°12' W 123°57'1312.8
2014-Nov-22 21:34N 49°17' W 123°40'1612.0
2014-Nov-22 20:11N 49°23' W 123°16'1016.0
2014-Nov-22 19:34N 49°17' W 123°30'1918.9
2014-Nov-22 18:33N 49°12' W 123°57'10 9.8
2014-Nov-22 17:33N 49°16' W 123°44'1919.3
2014-Nov-22 16:34N 49°23' W 123°17'9 9.1
2014-Nov-22 15:33N 49°18' W 123°28'2019.8
2014-Nov-22 14:34N 49°12' W 123°57'1 0.5
2014-Nov-22 13:25N 49°12' W 123°57'0 0.0
2014-Nov-22 12:19N 49°12' W 123°57'0 0.0
2014-Nov-22 11:31N 49°12' W 123°57'0 0.0
2014-Nov-22 08:13N 49°12' W 123°57'3 1.5
2014-Nov-22 06:33N 49°13' W 123°54'2020.0
2014-Nov-22 05:34N 49°19' W 123°25'3 3.3
2014-Nov-22 04:33N 49°20' W 123°20'2019.6
2014-Nov-22 03:34N 49°14' W 123°49'3 2.9
2014-Nov-22 02:33N 49°14' W 123°53'2020.0
2014-Nov-22 01:34N 49°19' W 123°24'6 5.6
2014-Nov-22 00:34N 49°23' W 123°17'1919.1
2014-Nov-21 23:34N 49°15' W 123°44'9 8.3
2014-Nov-21 22:27N 49°12' W 123°57'1719.3
2014-Nov-21 21:33N 49°18' W 123°33'12 9.5
2014-Nov-21 20:19N 49°23' W 123°16'1114.4
2014-Nov-21 19:33N 49°17' W 123°31'1817.4
2014-Nov-21 18:32N 49°12' W 123°57'1010.3
2014-Nov-21 17:33N 49°16' W 123°43'1919.0
2014-Nov-21 16:34N 49°23' W 123°17'9 8.6
2014-Nov-21 15:33N 49°18' W 123°27'2019.8
2014-Nov-21 14:34N 49°12' W 123°56'1 0.1
2014-Nov-21 05:25N 49°12' W 123°57'0 0.0
2014-Nov-21 03:13N 49°12' W 123°57'2 3.1
2014-Nov-21 02:34N 49°13' W 123°55'1919.5
2014-Nov-21 01:34N 49°19' W 123°27'8 7.6
2014-Nov-21 00:33N 49°23' W 123°17'1918.9
2014-Nov-20 23:34N 49°16' W 123°43'1010.1
2014-Nov-20 22:33N 49°12' W 123°57'1313.5
2014-Nov-20 21:34N 49°17' W 123°38'1611.3
2014-Nov-20 20:11N 49°23' W 123°16'1117.2
2014-Nov-20 19:34N 49°17' W 123°31'1812.5
2014-Nov-20 18:05N 49°12' W 123°57'1018.4
2014-Nov-20 17:33N 49°16' W 123°44'1919.2
2014-Nov-20 16:33N 49°23' W 123°17'9 8.7
2014-Nov-20 15:33N 49°18' W 123°28'2019.8
2014-Nov-20 14:34N 49°12' W 123°57'1 0.1
2014-Nov-20 08:22N 49°12' W 123°57'0 0.0
2014-Nov-20 07:16N 49°12' W 123°57'0 0.0
2014-Nov-20 05:28N 49°12' W 123°57'0 0.0
2014-Nov-20 04:16N 49°12' W 123°57'2 1.0
2014-Nov-20 02:33N 49°13' W 123°55'1919.6
2014-Nov-20 01:33N 49°18' W 123°27'8 8.4
2014-Nov-20 00:34N 49°23' W 123°16'1818.4
2014-Nov-19 23:33N 49°15' W 123°42'1110.5
2014-Nov-19 22:33N 49°12' W 123°57'1010.3
2014-Nov-19 21:33N 49°16' W 123°43'1918.8
2014-Nov-19 20:33N 49°23' W 123°16'9 9.4
2014-Nov-19 19:33N 49°18' W 123°28'2019.7
2014-Nov-19 18:34N 49°12' W 123°57'9 9.5
2014-Nov-19 17:33N 49°16' W 123°44'1919.1
2014-Nov-19 16:33N 49°23' W 123°17'9 8.9
2014-Nov-19 15:33N 49°18' W 123°27'2019.8
2014-Nov-19 14:34N 49°12' W 123°57'1 0.3
2014-Nov-19 11:16N 49°12' W 123°57'0 0.0
2014-Nov-19 08:28N 49°12' W 123°57'0 0.0
2014-Nov-19 07:28N 49°12' W 123°57'0 0.0
2014-Nov-19 06:28N 49°12' W 123°57'0 0.0
2014-Nov-19 05:22N 49°12' W 123°57'4 1.3
2014-Nov-19 02:33N 49°14' W 123°53'1919.5
2014-Nov-19 01:33N 49°19' W 123°24'6 6.0
2014-Nov-19 00:34N 49°23' W 123°17'1919.0
2014-Nov-18 23:33N 49°15' W 123°43'10 9.8
2014-Nov-18 22:33N 49°12' W 123°57'1313.0
2014-Nov-18 21:33N 49°17' W 123°39'1615.9
2014-Nov-18 20:33N 49°23' W 123°16'1111.2
2014-Nov-18 19:34N 49°17' W 123°31'1816.2
2014-Nov-18 18:27N 49°12' W 123°57'1112.1
2014-Nov-18 17:33N 49°16' W 123°42'1818.2
2014-Nov-18 16:34N 49°23' W 123°16'9 9.3
2014-Nov-18 15:34N 49°18' W 123°28'2019.7
2014-Nov-18 14:33N 49°12' W 123°57'1 0.5
2014-Nov-18 13:20N 49°12' W 123°57'0 0.0
2014-Nov-18 12:32N 49°12' W 123°57'0 0.0
2014-Nov-18 09:32N 49°12' W 123°57'0 0.0
2014-Nov-18 08:32N 49°12' W 123°57'0 0.0
2014-Nov-18 07:32N 49°12' W 123°57'0 0.0
2014-Nov-18 06:32N 49°12' W 123°57'0 0.0
2014-Nov-18 05:32N 49°12' W 123°57'1 0.5
2014-Nov-18 04:33N 49°12' W 123°58'1 0.5
2014-Nov-18 03:33N 49°12' W 123°57'4 3.8
2014-Nov-18 02:33N 49°14' W 123°52'1919.4
2014-Nov-18 01:33N 49°19' W 123°24'6 5.9
2014-Nov-18 00:33N 49°23' W 123°17'1918.6
2014-Nov-17 23:33N 49°15' W 123°43'10 8.3
2014-Nov-17 22:20N 49°12' W 123°57'1013.3
2014-Nov-17 21:33N 49°15' W 123°43'1918.7
2014-Nov-17 20:34N 49°23' W 123°16'9 9.2
2014-Nov-17 19:33N 49°18' W 123°28'2019.7
2014-Nov-17 18:33N 49°12' W 123°57'10 9.9
2014-Nov-17 17:33N 49°16' W 123°43'1918.8
2014-Nov-17 16:33N 49°23' W 123°16'10 9.8
2014-Nov-17 15:33N 49°17' W 123°29'2019.5
2014-Nov-17 14:33N 49°12' W 123°57'0 0.0
2014-Nov-17 10:23N 49°12' W 123°57'0 0.0
2014-Nov-17 08:29N 49°12' W 123°57'0 0.0
2014-Nov-17 07:17N 49°12' W 123°57'2 2.2
2014-Nov-17 06:33N 49°13' W 123°55'2020.1
2014-Nov-17 05:34N 49°19' W 123°26'6 6.3
2014-Nov-17 04:33N 49°23' W 123°18'2019.6
2014-Nov-17 03:33N 49°14' W 123°46'8 7.6
2014-Nov-17 02:34N 49°12' W 123°57'2020.3
2014-Nov-17 01:34N 49°19' W 123°27'8 8.3
2014-Nov-17 00:34N 49°23' W 123°16'1918.5
2014-Nov-16 23:33N 49°15' W 123°42'1110.3
2014-Nov-16 22:33N 49°12' W 123°57'1414.0
2014-Nov-16 21:33N 49°17' W 123°38'1511.6
2014-Nov-16 20:15N 49°23' W 123°16'1116.0
2014-Nov-16 19:33N 49°17' W 123°31'1818.0
2014-Nov-16 18:33N 49°12' W 123°57'1211.7
2014-Nov-16 17:33N 49°16' W 123°41'1717.3
2014-Nov-16 16:34N 49°23' W 123°16'9 9.2
2014-Nov-16 15:34N 49°18' W 123°28'2019.6
2014-Nov-16 14:34N 49°12' W 123°57'1 0.6
2014-Nov-16 13:26N 49°12' W 123°57'0 0.0
2014-Nov-16 12:20N 49°12' W 123°57'0 0.0
2014-Nov-16 11:32N 49°12' W 123°57'0 0.0
2014-Nov-16 10:32N 49°12' W 123°57'0 0.0
2014-Nov-16 09:32N 49°12' W 123°57'0 0.0
2014-Nov-16 08:14N 49°12' W 123°57'0 0.0
2014-Nov-16 07:14N 49°12' W 123°57'0 0.1
2014-Nov-16 06:33N 49°12' W 123°57'1919.1
2014-Nov-16 05:34N 49°19' W 123°30'10 9.8
2014-Nov-16 04:34N 49°23' W 123°17'1918.7
2014-Nov-16 03:33N 49°15' W 123°43'10 9.8
2014-Nov-16 02:34N 49°12' W 123°57'2019.9
2014-Nov-16 01:34N 49°19' W 123°28'9 8.9
2014-Nov-16 00:34N 49°23' W 123°17'1918.9
2014-Nov-15 23:33N 49°15' W 123°43'1010.0
2014-Nov-15 22:33N 49°12' W 123°57'1413.7
2014-Nov-15 21:33N 49°17' W 123°38'1514.7
2014-Nov-15 20:31N 49°23' W 123°16'1111.7
2014-Nov-15 19:34N 49°17' W 123°31'1817.9
2014-Nov-15 18:34N 49°12' W 123°57'1110.8
2014-Nov-15 17:33N 49°16' W 123°42'1818.3
2014-Nov-15 16:33N 49°23' W 123°16'9 9.4
2014-Nov-15 15:33N 49°18' W 123°29'2019.6
2014-Nov-15 14:33N 49°12' W 123°57'0 0.4
2014-Nov-15 13:33N 49°12' W 123°57'0 0.0
2014-Nov-15 12:23N 49°12' W 123°57'0 0.0
2014-Nov-15 11:29N 49°12' W 123°57'0 0.0
2014-Nov-15 10:29N 49°12' W 123°57'0 0.0
2014-Nov-15 09:29N 49°12' W 123°57'0 0.0
2014-Nov-15 08:29N 49°12' W 123°57'0 0.0
2014-Nov-15 07:17N 49°12' W 123°57'1 0.8
2014-Nov-15 06:34N 49°12' W 123°57'2019.7
2014-Nov-15 05:34N 49°18' W 123°28'7 7.4
2014-Nov-15 04:33N 49°22' W 123°19'1919.3
2014-Nov-15 03:33N 49°14' W 123°46'7 6.7
2014-Nov-15 02:34N 49°13' W 123°55'2019.6
2014-Nov-15 01:33N 49°19' W 123°27'8 8.0
2014-Nov-15 00:34N 49°23' W 123°17'1918.9
2014-Nov-14 23:34N 49°15' W 123°43'1010.0
2014-Nov-14 22:33N 49°12' W 123°57'1413.7
2014-Nov-14 21:34N 49°17' W 123°38'1512.6
2014-Nov-14 20:21N 49°23' W 123°16'1113.9
2014-Nov-14 19:34N 49°17' W 123°31'  

Dump ship's entire track history